Weather History for KUTA - August, 2013

Change the Weather History Date:

Thursday, August 22, 2013

  Actual Average (KMEM) Record (KMEM)
Temperature  
Mean Temperature 80 °F 82 °F  
Max Temperature 91 °F 91 °F 100 °F (2000)
Min Temperature 69 °F 72 °F 56 °F (1956)
Degree Days  
Heating Degree Days 0 0  
Month to date heating degree days 0  
Since 1 June heating degree days 0  
Since 1 July heating degree days 0  
Cooling Degree Days 15 17  
Month to date cooling degree days 386  
Year to date cooling degree days 1694  
Since 1 June cooling degree days 1373  
Growing Degree Days 30 (Base 50)    
Moisture  
Dew Point 71 °F    
Average Humidity 76    
Maximum Humidity 100    
Minimum Humidity 49    
Precipitation  
Precipitation 0.00 in 0.07 in 3.85 in (1874)
Month to date precipitation 2.20  
Year to date precipitation 34.70  
Snow  
Snow 0.00 in 0.00 in - ()
Month to date snowfall 0.0  
Since 1 June snowfall 0.0  
Since 1 July snowfall 0.0  
Snow Depth -    
Sea Level Pressure  
Sea Level Pressure 30.08 in    
Wind  
Wind Speed 2 mph (ESE)    
Max Wind Speed 6 mph    
Max Gust Speed -    
Visibility 9 miles    
Events Thunderstorm    
T = Trace of Precipitation, MM = Missing Value Source: NWS Daily Summary

Daily Weather History Graph

Daily Weather History Graph

Search for Another Location

Airport or City:

Trip Planner

Search our weather history database for the weather conditions in past years. The results will help you decide how hot, cold, wet, or windy it might be!

Date:

Astronomy

Aug. 22, 2013 Rise Set
Actual Time 6:27 AM CDT 7:40 PM CDT
Civil Twilight 6:01 AM CDT 8:06 PM CDT
Nautical Twilight 5:29 AM CDT 8:37 PM CDT
Astronomical Twilight 4:57 AM CDT 9:10 PM CDT
Moon 8:32 PM CDT (8/22) 8:09 AM CDT (8/22)
Length of Visible Light 14h 05m
Length of Day
13h 13m
Waning Gibbous, 96% of the Moon is Illuminated
Aug 22
Waning Gibbous
Aug 28
Last Quarter
Sep 5
New
Sep 12
First Quarter
Sep 19
Full

Hourly Weather History & Observations

Time (CDT) Temp. Heat Index Dew Point Humidity Pressure Visibility Wind Dir Wind Speed Gust Speed Precip Events Conditions
12:15 AM 73.4 °F - 71.6 °F 94% 30.11 in 10.0 mi SSE 3.5 mph - N/A   Clear
12:35 AM 73.4 °F - 71.6 °F 94% 30.11 in 10.0 mi Calm Calm - N/A   Clear
12:55 AM 73.4 °F - 71.6 °F 94% 30.11 in 10.0 mi Calm Calm - N/A   Clear
1:15 AM 73.4 °F - 71.6 °F 94% 30.10 in 10.0 mi Calm Calm - N/A   Clear
1:35 AM 73.4 °F - 71.6 °F 94% 30.10 in 10.0 mi Calm Calm - N/A   Clear
1:55 AM 71.6 °F - 69.8 °F 94% 30.10 in 10.0 mi Calm Calm - N/A   Clear
2:15 AM 71.6 °F - 71.6 °F 100% 30.09 in 5.0 mi North 3.5 mph - N/A   Clear
2:35 AM 71.6 °F - 69.8 °F 94% 30.10 in 10.0 mi Calm Calm - N/A   Clear
2:55 AM 71.6 °F - 71.6 °F 100% 30.10 in 10.0 mi Calm Calm - N/A   Clear
3:15 AM 71.6 °F - 69.8 °F 94% 30.10 in 10.0 mi Calm Calm - N/A   Clear
3:35 AM 71.6 °F - 69.8 °F 94% 30.10 in 7.0 mi Calm Calm - N/A   Clear
3:55 AM 71.6 °F - 69.8 °F 94% 30.09 in 5.0 mi SE 3.5 mph - N/A   Clear
4:15 AM 71.6 °F - 69.8 °F 94% 30.10 in 7.0 mi SSE 3.5 mph - N/A   Clear
4:35 AM 71.6 °F - 69.8 °F 94% 30.11 in 2.5 mi SE 3.5 mph - N/A   Clear
4:55 AM 71.6 °F - 69.8 °F 94% 30.11 in 7.0 mi Calm Calm - N/A   Clear
5:15 AM 71.6 °F - 69.8 °F 94% 30.11 in 7.0 mi Calm Calm - N/A   Clear
5:35 AM 71.6 °F - 69.8 °F 94% 30.12 in 7.0 mi Calm Calm - N/A   Clear
5:55 AM 71.6 °F - 69.8 °F 94% 30.12 in 5.0 mi Calm Calm - N/A   Clear
6:15 AM 71.6 °F - 69.8 °F 94% 30.13 in 2.0 mi Calm Calm - N/A   Clear
6:35 AM 69.8 °F - 69.8 °F 100% 30.13 in 3.0 mi SSE 3.5 mph - N/A   Clear
6:55 AM 71.6 °F - 69.8 °F 94% 30.13 in 4.0 mi Calm Calm - N/A   Clear
7:15 AM 71.6 °F - 71.6 °F 100% 30.14 in 4.0 mi Calm Calm - N/A   Clear
7:35 AM 73.4 °F - 71.6 °F 94% 30.14 in 7.0 mi Calm Calm - N/A   Clear
7:55 AM 75.2 °F - 73.4 °F 94% 30.14 in 7.0 mi Calm Calm - N/A   Clear
8:15 AM 77.0 °F - 73.4 °F 89% 30.14 in 10.0 mi Calm Calm - N/A   Clear
8:35 AM 77.0 °F - 73.4 °F 89% 30.14 in 10.0 mi SSW 4.6 mph - N/A   Clear
8:55 AM 78.8 °F - 73.4 °F 83% 30.14 in 10.0 mi SSW 3.5 mph - N/A   Clear
9:15 AM 80.6 °F 85.4 °F 73.4 °F 79% 30.14 in 10.0 mi WSW 4.6 mph - N/A   Clear
9:35 AM 80.6 °F 85.4 °F 73.4 °F 79% 30.13 in 10.0 mi WSW 3.5 mph - N/A   Clear
9:55 AM 82.4 °F 88.2 °F 73.4 °F 74% 30.13 in 10.0 mi WSW 3.5 mph - N/A   Clear
10:15 AM 84.2 °F 90.9 °F 73.4 °F 70% 30.13 in 10.0 mi Calm Calm - N/A   Clear
10:35 AM 86.0 °F 93.4 °F 73.4 °F 66% 30.13 in 10.0 mi South 3.5 mph - N/A   Scattered Clouds
10:55 AM 86.0 °F 91.8 °F 71.6 °F 62% 30.13 in 10.0 mi Calm Calm - N/A   Scattered Clouds
11:15 AM 86.0 °F 93.4 °F 73.4 °F 66% 30.13 in 10.0 mi NW 3.5 mph - N/A   Mostly Cloudy
11:35 AM 86.0 °F 91.8 °F 71.6 °F 62% 30.13 in 10.0 mi Calm Calm - N/A   Scattered Clouds
11:55 AM 86.0 °F 91.8 °F 71.6 °F 62% 30.12 in 10.0 mi Calm Calm - N/A   Scattered Clouds
12:15 PM 87.8 °F 93.8 °F 71.6 °F 58% 30.11 in 10.0 mi Calm Calm - N/A   Scattered Clouds
12:35 PM 86.0 °F 91.8 °F 71.6 °F 62% 30.11 in 10.0 mi Calm Calm - N/A   Scattered Clouds
12:55 PM 87.8 °F 95.6 °F 73.4 °F 62% 30.10 in 10.0 mi SE 4.6 mph - N/A   Scattered Clouds
1:15 PM 87.8 °F 93.8 °F 71.6 °F 58% 30.09 in 10.0 mi Calm Calm - N/A   Clear
1:35 PM 89.6 °F 96.2 °F 71.6 °F 55% 30.08 in 10.0 mi SSE 3.5 mph - N/A   Clear
1:55 PM 89.6 °F 96.2 °F 71.6 °F 55% 30.08 in 10.0 mi East 3.5 mph - N/A   Mostly Cloudy
2:15 PM 89.6 °F 96.2 °F 71.6 °F 55% 30.07 in 10.0 mi SSE 4.6 mph - N/A   Scattered Clouds
2:35 PM 89.6 °F 96.2 °F 71.6 °F 55% 30.06 in 10.0 mi Calm Calm - N/A   Clear
2:55 PM 89.6 °F 94.7 °F 69.8 °F 52% 30.06 in 10.0 mi NNE 3.5 mph - N/A   Clear
3:15 PM 89.6 °F 94.7 °F 69.8 °F 52% 30.05 in 10.0 mi Calm Calm - N/A   Clear
3:35 PM 89.6 °F 94.7 °F 69.8 °F 52% 30.03 in 10.0 mi NNE 3.5 mph - N/A   Clear
3:55 PM 91.4 °F 96.8 °F 69.8 °F 49% 30.03 in 10.0 mi Calm Calm - N/A   Clear
4:15 PM 89.6 °F 94.7 °F 69.8 °F 52% 30.03 in 10.0 mi Calm Calm - N/A   Clear
4:35 PM 87.8 °F 92.6 °F 69.8 °F 55% 30.03 in 10.0 mi NNW 3.5 mph - N/A   Clear
4:55 PM 87.8 °F 92.6 °F 69.8 °F 55% 30.03 in 10.0 mi Calm Calm - N/A   Clear
5:15 PM 89.6 °F 93.4 °F 68.0 °F 49% 30.02 in 10.0 mi Calm Calm - N/A   Clear
5:35 PM 89.6 °F 93.4 °F 68.0 °F 49% 30.01 in 10.0 mi Calm Calm - N/A Thunderstorm Clear
5:55 PM 89.6 °F 94.7 °F 69.8 °F 52% 30.02 in 10.0 mi NNE 5.8 mph - N/A   Clear
6:15 PM 87.8 °F 93.8 °F 71.6 °F 58% 30.02 in 10.0 mi North 5.8 mph - N/A   Clear
6:35 PM 86.0 °F 93.4 °F 73.4 °F 66% 30.02 in 10.0 mi NE 4.6 mph - N/A   Clear
6:55 PM 86.0 °F 93.4 °F 73.4 °F 66% 30.01 in 10.0 mi NE 3.5 mph - N/A   Clear
7:15 PM 86.0 °F 93.4 °F 73.4 °F 66% 30.02 in 10.0 mi NE 3.5 mph - N/A   Clear
7:35 PM 86.0 °F 93.4 °F 73.4 °F 66% 30.02 in 10.0 mi East 5.8 mph - N/A   Clear
7:55 PM 82.4 °F 87.2 °F 71.6 °F 70% 30.02 in 10.0 mi East 3.5 mph - N/A   Clear
8:15 PM 82.4 °F 87.2 °F 71.6 °F 70% 30.02 in 10.0 mi East 4.6 mph - N/A   Clear
8:35 PM 80.6 °F 84.6 °F 71.6 °F 74% 30.03 in 10.0 mi ESE 3.5 mph - N/A   Clear
8:55 PM 78.8 °F - 73.4 °F 83% 30.04 in 10.0 mi SE 5.8 mph - N/A   Clear
9:15 PM 78.8 °F - 71.6 °F 78% 30.04 in 10.0 mi East 3.5 mph - N/A   Clear
9:35 PM 78.8 °F - 71.6 °F 78% 30.04 in 10.0 mi NNE 3.5 mph - N/A   Clear
9:55 PM 77.0 °F - 71.6 °F 83% 30.05 in 10.0 mi Calm Calm - N/A   Clear
10:15 PM 77.0 °F - 71.6 °F 83% 30.06 in 10.0 mi Calm Calm - N/A   Clear
10:35 PM 77.0 °F - 71.6 °F 83% 30.06 in 10.0 mi Calm Calm - N/A   Clear
10:55 PM 77.0 °F - 71.6 °F 83% 30.06 in 10.0 mi Calm Calm - N/A   Clear
11:15 PM 77.0 °F - 71.6 °F 83% 30.06 in 10.0 mi Calm Calm - N/A   Clear
11:35 PM 77.0 °F - 71.6 °F 83% 30.06 in 10.0 mi Calm Calm - N/A   Clear
11:55 PM 75.2 °F - 69.8 °F 83% 30.05 in 10.0 mi Calm Calm - N/A   Clear